Montevideo, MN

1:45 PM CDT on October 20, 2017 (GMT -0500)
Montevideo-Chippewa County

Weather History for KMVE - March, 2014

Change the Weather History Date:

Tuesday, March 25, 2014

  Actual Average Record
Temperature  
Mean Temperature 19 °F -  
Max Temperature 30 °F 44 °F 72 °F (1976)
Min Temperature 8 °F 26 °F -4 °F (1964)
Degree Days  
Heating Degree Days 46    
Moisture  
Dew Point 7 °F    
Average Humidity 60    
Maximum Humidity 86    
Minimum Humidity 37    
Precipitation  
Precipitation 0.00 in - - ()
Sea Level Pressure  
Sea Level Pressure 30.25 in    
Wind  
Wind Speed 13 mph (NNW)    
Max Wind Speed 23 mph    
Max Gust Speed 32 mph    
Visibility 10 miles    
Events Snow    
Averages and records for this station are not official NWS values.
T = Trace of Precipitation, MM = Missing Value Source: NWS Daily Summary

Daily Weather History Graph

Daily Weather History Graph

Search for Another Location

Airport or City:

Trip Planner

Search our weather history database for the weather conditions in past years. The results will help you decide how hot, cold, wet, or windy it might be!

Date:

Astronomy

Mar. 25, 2014 Rise Set
Actual Time 7:16 AM CDT 7:41 PM CDT
Civil Twilight 6:47 AM CDT 8:11 PM CDT
Nautical Twilight 6:12 AM CDT 8:45 PM CDT
Astronomical Twilight 5:36 AM CDT 9:21 PM CDT
Moon 3:52 AM CDT (3/25) 2:01 PM CDT (3/25)
Length of Visible Light 13h 24m
Length of Day
12h 25m
Waning Crescent, 32% of the Moon is Illuminated
Mar 25
Waning Crescent
Mar 30
New
Apr 7
First Quarter
Apr 15
Full
Apr 22
Last Quarter

Hourly Weather History & Observations

Time (CDT) Temp. Windchill Dew Point Humidity Pressure Visibility Wind Dir Wind Speed Gust Speed Precip Events Conditions
12:14 AM 21.2 °F 7.8 °F 15.8 °F 80% 30.21 in 10.0 mi North 15.0 mph 21.9 mph N/A   Overcast
12:34 AM 21.2 °F 7.3 °F 17.6 °F 86% 30.22 in 4.0 mi NNE 16.1 mph 20.7 mph N/A Snow Light Snow
12:54 AM 19.4 °F 3.2 °F 14.0 °F 80% 30.23 in 10.0 mi NNE 20.7 mph 32.2 mph N/A   Overcast
1:14 AM 19.4 °F 2.5 °F 12.2 °F 74% 30.23 in 10.0 mi North 23.0 mph 29.9 mph N/A   Overcast
1:34 AM 17.6 °F 0.9 °F 10.4 °F 73% 30.24 in 10.0 mi North 20.7 mph 28.8 mph N/A   Scattered Clouds
1:54 AM 17.6 °F 0.5 °F 10.4 °F 73% 30.25 in 10.0 mi NNE 21.9 mph 26.5 mph N/A   Mostly Cloudy
2:14 AM 17.6 °F 5.7 °F 10.4 °F 73% 30.25 in 10.0 mi North 10.4 mph - N/A   Overcast
2:34 AM 17.6 °F 3.7 °F 10.4 °F 73% 30.26 in 10.0 mi North 13.8 mph 17.3 mph N/A Snow Light Snow
2:54 AM 15.8 °F -0.2 °F 8.6 °F 73% 30.26 in 10.0 mi North 17.3 mph 25.3 mph N/A   Overcast
3:14 AM 15.8 °F -1.5 °F 8.6 °F 73% 30.26 in 10.0 mi North 20.7 mph 27.6 mph N/A   Scattered Clouds
3:34 AM 14.0 °F -3.0 °F 8.6 °F 79% 30.27 in 10.0 mi North 18.4 mph 26.5 mph N/A   Clear
3:54 AM 14.0 °F -0.8 °F 6.8 °F 73% 30.28 in 10.0 mi North 13.8 mph 23.0 mph N/A   Clear
4:14 AM 14.0 °F -0.8 °F 6.8 °F 73% 30.28 in 10.0 mi North 13.8 mph 21.9 mph N/A   Mostly Cloudy
4:34 AM 14.0 °F -0.2 °F 8.6 °F 79% 30.29 in 7.0 mi North 12.7 mph 19.6 mph N/A   Overcast
4:54 AM 14.0 °F -0.8 °F 8.6 °F 79% 30.29 in 10.0 mi North 13.8 mph - N/A   Overcast
5:14 AM 12.2 °F -4.3 °F 6.8 °F 79% 30.30 in 10.0 mi North 16.1 mph 25.3 mph N/A   Overcast
5:34 AM 12.2 °F -4.8 °F 6.8 °F 79% 30.31 in 10.0 mi North 17.3 mph - N/A   Overcast
5:54 AM 12.2 °F -2.5 °F 6.8 °F 79% 30.31 in 10.0 mi North 12.7 mph - N/A   Overcast
6:14 AM 12.2 °F -2.5 °F 6.8 °F 79% 30.32 in 10.0 mi North 12.7 mph - N/A   Mostly Cloudy
6:34 AM 10.4 °F -2.4 °F 5.0 °F 79% 30.31 in 10.0 mi North 9.2 mph - N/A   Scattered Clouds
6:54 AM 10.4 °F -2.4 °F 3.2 °F 73% 30.32 in 10.0 mi North 9.2 mph - N/A   Clear
7:14 AM 10.4 °F -2.4 °F 3.2 °F 73% 30.32 in 10.0 mi North 9.2 mph - N/A   Clear
7:34 AM 8.6 °F -3.7 °F 3.2 °F 79% 30.32 in 10.0 mi North 8.1 mph - N/A   Clear
7:54 AM 10.4 °F -2.4 °F 5.0 °F 79% 30.32 in 10.0 mi North 9.2 mph - N/A   Clear
8:14 AM 12.2 °F -1.0 °F 5.0 °F 73% 30.33 in 10.0 mi North 10.4 mph - N/A   Clear
8:34 AM 14.0 °F -0.2 °F 5.0 °F 67% 30.33 in 10.0 mi North 12.7 mph 18.4 mph N/A   Clear
8:53 AM 15.8 °F 2.7 °F 6.8 °F 68% 30.34 in 10.0 mi North 11.5 mph - N/A   Clear
9:14 AM 15.8 °F 0.9 °F 6.8 °F 68% 30.34 in 10.0 mi North 15.0 mph - N/A   Clear
9:34 AM 15.8 °F 1.4 °F 6.8 °F 68% 30.35 in 10.0 mi North 13.8 mph 17.3 mph N/A   Mostly Cloudy
9:54 AM 15.8 °F 2.7 °F 6.8 °F 68% 30.35 in 10.0 mi North 11.5 mph 20.7 mph N/A   Mostly Cloudy
10:14 AM 19.4 °F 7.9 °F 6.8 °F 58% 30.34 in 10.0 mi North 10.4 mph - N/A   Mostly Cloudy
10:34 AM 17.6 °F 7.3 °F 6.8 °F 63% 30.34 in 10.0 mi NNW 8.1 mph - N/A   Overcast
10:54 AM 17.6 °F 7.3 °F 5.0 °F 58% 30.35 in 10.0 mi WNW 8.1 mph 18.4 mph N/A   Overcast
11:14 AM 17.6 °F 4.3 °F 6.8 °F 63% 30.34 in 10.0 mi NNW 12.7 mph 17.3 mph N/A   Overcast
11:34 AM 19.4 °F 6.6 °F 6.8 °F 58% 30.33 in 10.0 mi NNW 12.7 mph 17.3 mph N/A   Mostly Cloudy
11:54 AM 21.2 °F 8.9 °F 8.6 °F 58% 30.33 in 10.0 mi NNW 12.7 mph 17.3 mph N/A   Mostly Cloudy
12:14 PM 21.2 °F 8.3 °F 6.8 °F 54% 30.33 in 10.0 mi NNW 13.8 mph - N/A   Scattered Clouds
12:34 PM 21.2 °F 10.9 °F 6.8 °F 54% 30.32 in 10.0 mi NNW 9.2 mph 18.4 mph N/A   Scattered Clouds
12:54 PM 23.0 °F 11.7 °F 6.8 °F 50% 30.31 in 10.0 mi NNW 11.5 mph - N/A   Clear
1:14 PM 24.8 °F 12.9 °F 6.8 °F 46% 30.30 in 10.0 mi NNW 13.8 mph 19.6 mph N/A   Scattered Clouds
1:34 PM 24.8 °F 13.4 °F 8.6 °F 50% 30.29 in 10.0 mi WNW 12.7 mph 17.3 mph N/A   Scattered Clouds
1:54 PM 24.8 °F 14.0 °F 6.8 °F 46% 30.29 in 10.0 mi NW 11.5 mph 17.3 mph N/A   Scattered Clouds
2:14 PM 26.6 °F 15.7 °F 6.8 °F 43% 30.27 in 10.0 mi NNW 12.7 mph 19.6 mph N/A   Scattered Clouds
2:34 PM 26.6 °F 16.8 °F 6.8 °F 43% 30.26 in 10.0 mi North 10.4 mph 18.4 mph N/A   Scattered Clouds
2:54 PM 26.6 °F 16.2 °F 8.6 °F 47% 30.25 in 10.0 mi North 11.5 mph - N/A   Scattered Clouds
3:14 PM 28.4 °F 19.1 °F 8.6 °F 43% 30.24 in 10.0 mi NNW 10.4 mph 17.3 mph N/A   Scattered Clouds
3:34 PM 28.4 °F 19.1 °F 8.6 °F 43% 30.23 in 10.0 mi NNW 10.4 mph 17.3 mph N/A   Clear
3:54 PM 30.2 °F 20.8 °F 8.6 °F 40% 30.22 in 10.0 mi NW 11.5 mph - N/A   Clear
4:13 PM 30.2 °F 19.8 °F 6.8 °F 37% 30.21 in 10.0 mi North 13.8 mph - N/A   Clear
4:34 PM 30.2 °F 24.3 °F 6.8 °F 37% 30.20 in 10.0 mi NW 5.8 mph 16.1 mph N/A   Clear
4:54 PM 30.2 °F 21.9 °F 6.8 °F 37% 30.20 in 10.0 mi North 9.2 mph - N/A   Clear
5:14 PM 30.2 °F 21.3 °F 6.8 °F 37% 30.19 in 10.0 mi NNW 10.4 mph - N/A   Clear
5:34 PM 30.2 °F 20.2 °F 6.8 °F 37% 30.19 in 10.0 mi North 12.7 mph 17.3 mph N/A   Clear
5:54 PM 30.2 °F 24.3 °F 6.8 °F 37% 30.18 in 10.0 mi NNW 5.8 mph - N/A   Clear
6:14 PM 30.2 °F 20.8 °F 6.8 °F 37% 30.18 in 10.0 mi NNW 11.5 mph - N/A   Clear
6:34 PM 30.2 °F 25.4 °F 6.8 °F 37% 30.18 in 10.0 mi NNW 4.6 mph - N/A   Clear
6:54 PM 28.4 °F 21.2 °F 5.0 °F 37% 30.17 in 10.0 mi North 6.9 mph - N/A   Clear
7:13 PM 26.6 °F 21.2 °F 3.2 °F 37% 30.16 in 10.0 mi North 4.6 mph - N/A   Clear
7:34 PM 24.8 °F 20.5 °F 3.2 °F 40% 30.16 in 10.0 mi NNW 3.5 mph - N/A   Clear
7:54 PM 23.0 °F - 1.4 °F 39% 30.16 in 10.0 mi Calm Calm - N/A   Clear
8:13 PM 21.2 °F - 1.4 °F 42% 30.16 in 10.0 mi Calm Calm - N/A   Clear
8:34 PM 21.2 °F - 1.4 °F 42% 30.16 in 10.0 mi Calm Calm - N/A   Clear
8:54 PM 21.2 °F - 6.8 °F 54% 30.16 in 10.0 mi Calm Calm - N/A   Clear
9:13 PM 19.4 °F - 6.8 °F 58% 30.15 in 10.0 mi Calm Calm - N/A   Clear
9:34 PM 19.4 °F - 8.6 °F 63% 30.15 in 10.0 mi Calm Calm - N/A   Clear
9:54 PM 19.4 °F 14.3 °F 8.6 °F 63% 30.14 in 10.0 mi SSW 3.5 mph - N/A   Clear
10:13 PM 19.4 °F 14.3 °F 8.6 °F 63% 30.14 in 10.0 mi SSW 3.5 mph - N/A   Clear
10:34 PM 19.4 °F 14.3 °F 8.6 °F 63% 30.14 in 10.0 mi SSW 3.5 mph - N/A   Clear
10:54 PM 19.4 °F 12.8 °F 10.4 °F 68% 30.13 in 10.0 mi SSW 4.6 mph - N/A   Clear
11:13 PM 19.4 °F 12.8 °F 10.4 °F 68% 30.13 in 10.0 mi SSW 4.6 mph - N/A   Clear
11:34 PM 19.4 °F 14.3 °F 10.4 °F 68% 30.12 in 10.0 mi SSW 3.5 mph - N/A   Clear
11:54 PM 19.4 °F 14.3 °F 10.4 °F 68% 30.11 in 10.0 mi South 3.5 mph - N/A   Clear